Location: Budapest
(47.4979°N, 19.0402°E)
Time: 09:55:28
(UTC+02:00)

ISS - Pass Details

Date: 11 October 2017
Orbit: 401 x 408 km, 51.6° (Epoch: 18 October)

Event Time Altitude Azimuth Distance (km) Brightness Sun altitude
Rises 18:38:37 0° 293° (WNW) 2,325 1.3 -6.7°
Reaches altitude 10° 18:40:43 10° 297° (WNW) 1,465 0.1 -7.1°
Maximum altitude 18:43:59 61° 19° (NNE) 464 -3.7 -7.6°
Enters shadow 18:47:08 11° 100° (E) 1,423 -1.7 -8.2°
